Location: Lanoux
(43.1180°N, 1.4255°E)
Time: 16:47:50
(UTC+00:00)

Cosmos 2369 - Pass Details

Date: 13 December 2025
Orbit: 839 x 854 km, 71.0° (Epoch: 16 January)

Event Time Altitude Azimuth Distance (km) Brightness Sun altitude
Rises 17:53:51 0° 194° (SSW) 3,405 7.3 -16.5°
Reaches altitude 10° 17:56:18 10° 192° (SSW) 2,474 6.5 -16.9°
Maximum altitude 18:01:56 67° 111° (ESE) 923 3.7 -17.9°
Enters shadow 18:05:36 23° 34° (NE) 1,761 4.9 -18.6°
